Tracking 25689 objects as of 7-Jul-2022
HD Live streaming from Space Station
objects crossing your sky now

FENGYUN 1C DEB

Track FENGYUN 1C DEB now!
10-day predictions


NORAD ID: 30411
Int'l Code: 1999-025AEA
Perigee: 808.7 km
Apogee: 1,025.2 km
Inclination: 98.5 °
Period: 103.2 minutes
Semi major axis: 7287 km
RCS: 0.03 m2 (small)
Launch date: May 10, 1999
Source: People's Republic of China (PRC)
Launch site: Taiyaun Space Center, China (TSC)

Note: This is SATELLITE DEBRIS
aabbcc
Your satellite tracking list
Your tracking list is empty




NASA's NSSDC Master Catalog

Two Line Element Set (TLE):
1 30411U 99025AEA 22187.39439290  .00000808  00000-0  57041-3 0  9999
2 30411  98.5380 159.2507 0148560  26.8013 334.0729 13.95393827784082
Source of the keplerian elements: AFSPC